Weather observations for the past three days for
Wheeler Air Force Base / Oahu
Imperial (Metric)
Date Time (hst) Wind (mph) Vis. (mi.) Weather Sky Cond. Temperature (ºF) Relative Humidity Wind Chill (°F) Heat Index (°F) Pressure Precipitation (in)
Air Dwpt 6 hour altimeter (in) sea level (mb) 1 hr 3 hr 6 hr
Max. Min.
20 15:55 E 9 10.00 Overcast BKN038 OVC055 82.8 67.5 60% 86 30.03 1015.9
20 14:55 E 7 10.00 Overcast OVC039 82.9 66 57% 85 30.04 1016.3
20 13:55 E 14 10.00 Mostly Cloudy SCT039 BKN048 84.6 66 85.8 75.2 54% 87 30.04 1016.3
20 12:55 E 13 G 17 10.00 Overcast BKN040 OVC050 84.7 65.7 53% 87 30.06 1016.8
20 11:55 E 12 G 21 10.00 Mostly Cloudy BKN037 BKN045 83.7 64 52% 85 30.07 1017.2
20 10:55 E 12 10.00 Mostly Cloudy BKN035 83.3 65.3 55% 85 30.08 1017.6
20 09:55 SE 6 10.00 Mostly Cloudy SCT028 BKN038 80.4 65.7 61% 82 30.09 1018.0
20 08:55 E 5 10.00 Mostly Cloudy BKN025 79.5 65.8 63% 82 30.09 1017.9
20 07:55 Calm 10.00 Fair CLR 75.2 65.8 75.2 66 73% 77 30.09 1018.0
20 06:55 Calm 10.00 Fair CLR 71.6 65.1 80% 30.08 1017.6
20 05:55 NW 5 10.00 Mostly Cloudy BKN020 69.6 63.5 81% 30.07 1017.3
20 04:55 NW 5 10.00 Fair CLR 68.2 62.8 83% 30.06 1017.0
20 03:55 NW 3 10.00 A Few Clouds FEW022 67.5 63.1 86% 30.06 1016.9
20 02:55 N 3 10.00 Fair CLR 68 63 84% 30.06 1016.9
20 00:55 N 3 10.00 Fair CLR 72 64.4 77% 30.09 1018.0
19 23:55 NW 5 10.00 Fair CLR 71.4 64.2 78% 30.11 1018.6
19 22:55 Calm 10.00 Partly Cloudy SCT028 70.2 64 81% 30.11 1018.6
19 21:55 Calm 10.00 Partly Cloudy SCT028 68.4 63.3 84% 30.11 1018.7
19 20:55 Calm 10.00 Fair CLR 75 64.9 71% 77 30.11 1018.6
19 19:55 Calm 10.00 Fair CLR 75.4 64.4 83.1 75.4 69% 77 30.09 1018.0
19 18:55 NE 5 10.00 Fair CLR 77 64.2 65% 79 30.08 1017.7
19 17:55 E 12 10.00 Fair CLR 79.2 64.9 62% 81 30.06 1017.0
19 16:55 E 13 10.00 Fair CLR 80.2 65.1 60% 82 30.05 1016.6
19 15:55 E 15 10.00 Fair CLR 82 64.8 56% 84 30.04 1016.3
19 14:55 E 13 10.00 Mostly Cloudy BKN050 82 64.8 56% 84 30.06 1016.9
19 13:55 NE 14 10.00 Partly Cloudy SCT060 81.1 65.8 81.9 71.8 60% 83 30.07 1017.3
19 12:55 E 12 10.00 Overcast BKN029 BKN037 OVC047 79.3 64.2 60% 81 30.08 1017.7
19 11:55 NE 12 10.00 Mostly Cloudy SCT028 BKN047 BKN055 79.5 65.3 62% 81 30.08 1017.7
19 10:55 E 15 10.00 Overcast SCT026 BKN047 OVC060 79.9 65.7 62% 82 30.1 1018.3
19 09:55 E 10 10.00 Partly Cloudy FEW020 SCT039 SCT048 77.9 66 67% 80 30.1 1018.3
19 08:55 NE 6 10.00 Mostly Cloudy BKN045 BKN055 76.1 66 71% 78 30.1 1018.3
19 07:55 NW 6 10.00 Mostly Cloudy FEW021 SCT027 BKN055 72.1 64.6 73.2 66.2 77% 30.1 1018.3
19 06:55 W 8 10.00 Mostly Cloudy BKN050 70 63.9 81% 30.08 1017.7
19 05:55 NW 6 10.00 A Few Clouds FEW048 67.1 62.4 85% 30.06 1017.0
19 04:55 NW 5 10.00 A Few Clouds FEW050 68.9 62.4 80% 30.06 1016.9
19 03:55 NW 7 10.00 Fair CLR 69.4 63 80% 30.07 1017.3
19 02:55 NW 5 10.00 Partly Cloudy SCT045 67.3 61.9 83% 30.07 1017.3
19 01:55 NW 6 10.00 Partly Cloudy SCT045 66.9 62.6 75.2 66 86% 30.07 1017.3
19 00:55 NW 5 10.00 Fair CLR 66.2 61.9 86% 30.09 1018.0
18 23:55 NW 3 10.00 Fair CLR 67.6 63 85% 30.1 1018.3
18 22:55 NW 3 10.00 Fair CLR 67.1 62.8 86% 30.11 1018.7
18 21:55 N 5 10.00 Fair CLR 73 63.5 72% 30.11 1018.6
18 20:55 NE 6 10.00 Fair CLR 74.3 63.5 69% 30.1 1018.3
18 19:55 N 7 10.00 Partly Cloudy FEW030 SCT039 75.4 64 83.8 75.2 68% 77 30.09 1018.0
18 18:55 NE 9 10.00 Partly Cloudy SCT033 76.5 62.4 62% 78 30.07 1017.3
18 17:55 E 8 10.00 Partly Cloudy SCT032 78.4 61.9 57% 80 30.06 1016.9
18 16:55 E 10 10.00 Fair CLR 79.7 62.6 56% 81 30.05 1016.6
18 15:55 E 12 10.00 Fair CLR 81.1 60.6 50% 82 30.05 1016.6
18 14:55 E 10 10.00 Fair CLR 81.7 59.4 47% 82 30.05 1016.6
18 13:55 NE 12 G 17 10.00 Fair CLR 82.8 60.4 83.7 75.4 47% 83 30.06 1016.9
18 12:55 E 5 10.00 Mostly Cloudy FEW100 FEW130 SCT150 SCT170 BKN200 82.2 59.4 46% 82 30.08 1017.6
18 11:55 E 5 10.00 A Few Clouds FEW040 79.5 60.3 52% 81 30.09 1018.0
18 10:55 NE 5 10.00 Partly Cloudy SCT042 78.8 62.8 58% 80 30.1 1018.3
18 09:55 NE 5 10.00 Partly Cloudy SCT035 SCT043 77.4 62.4 60% 79 30.11 1018.6
18 08:55 E 3 10.00 A Few Clouds FEW031 77.2 61.7 59% 79 30.1 1018.3
18 07:55 NE 5 10.00 Fair CLR 75.2 63.5 75.2 68.2 67% 77 30.1 1018.3
18 06:55 Calm 10.00 A Few Clouds FEW042 69.4 65.1 86% 30.09 1018.0
18 05:55 Calm 10.00 Partly Cloudy SCT042 70.2 64.8 83% 30.07 1017.3
18 04:55 E 6 10.00 Overcast FEW007 SCT014 OVC022 71.4 66.4 84% 30.06 1016.9
18 03:55 NW 3 10.00 Mostly Cloudy SCT026 BKN034 69.3 64.6 85% 30.05 1016.6
18 02:55 Calm 10.00 Overcast BKN027 OVC036 70 64.9 84% 30.04 1016.3
18 01:55 NW 5 10.00 Mostly Cloudy FEW023 BKN033 BKN041 68.2 63.5 74.8 67.3 85% 30.05 1016.6
18 00:55 NW 5 10.00 Mostly Cloudy BKN028 BKN035 68.2 63.5 85% 30.07 1017.3
17 23:55 NW 6 10.00 Mostly Cloudy BKN033 67.8 63.1 85% 30.09 1018.0
17 22:55 NW 3 10.00 Fair CLR 71.6 64 77% 30.1 1018.3
17 21:55 N 3 10.00 Fair CLR 73.4 63.9 72% 30.1 1018.3
17 20:55 N 3 10.00 Fair CLR 73.8 63.7 71% 30.08 1017.6
17 19:55 NE 5 10.00 Fair CLR 75 63.3 82.9 75 67% 77 30.07 1017.3
17 18:55 NE 9 10.00 Partly Cloudy SCT030 76.1 62.1 62% 78 30.06 1016.9
17 17:55 NE 12 10.00 Partly Cloudy SCT033 79.3 62.8 57% 81 30.05 1016.6
17 16:55 NE 14 G 20 10.00 A Few Clouds FEW038 79.2 61 54% 80 30.04 1016.3
Date Time (hst) Wind (mph) Vis. (mi.) Weather Sky Cond. Air Dwpt Max. Min. Relative Humidity Wind Chill (°F) Heat Index (°F) altimeter (in) sea level (mb) 1 hr 3 hr 6 hr
6 hour
Temperature (ºF) Pressure Precipitation (in)